Granite Falls, MN

10:57 AM CST on December 10, 2019 (GMT -0600)
Granite Falls

Weather History for KGDB - October, 2019

Change the Weather History Date:

Saturday, October 12, 2019

  Actual Average (WUND) Record (WUND)
Temperature  
Mean Temperature 36 °F -  
Max Temperature 38 °F - - (-1)
Min Temperature 33 °F - - (-1)
Degree Days  
Heating Degree Days 30    
Moisture  
Dew Point 30 °F    
Average Humidity 80    
Maximum Humidity 93    
Minimum Humidity 71    
Precipitation  
Precipitation 0.00 in - - ()
Sea Level Pressure  
Sea Level Pressure 29.67 in    
Wind  
Wind Speed 22 mph (WSW)    
Max Wind Speed 31 mph    
Max Gust Speed 40 mph    
Visibility 9 miles    
Events Snow    
Averages and records for this station are not official NWS values.
T = Trace of Precipitation, MM = Missing Value Source: NWS Daily Summary

Daily Weather History Graph

Daily Weather History Graph

Search for Another Location

Airport or City:

Astronomy

Oct. 12, 2019 Rise Set
Actual Time 7:33 AM CDT 6:43 PM CDT
Civil Twilight 7:04 AM CDT 7:12 PM CDT
Nautical Twilight 6:30 AM CDT 7:46 PM CDT
Astronomical Twilight 5:56 AM CDT 8:20 PM CDT
Moon 6:44 PM CDT (10/12) 6:05 AM CDT (10/12)
Length of Visible Light 12h 08m
Length of Day
11h 09m
Waxing Gibbous, 99% of the Moon is Illuminated
Oct 12
Waxing Gibbous
Oct 13
Full
Oct 21
Last Quarter
Oct 27
New
Nov 4
First Quarter

Hourly Weather History & Observations

Time (CDT) Temp. Windchill Dew Point Humidity Pressure Visibility Wind Dir Wind Speed Gust Speed Precip Events Conditions
12:16 AM 34.5 °F 23.1 °F 28.6 °F 79% 29.75 in 10.0 mi WSW 20.7 mph 31.1 mph N/A   Overcast
12:35 AM 34.7 °F 22.8 °F 28.4 °F 78% 29.74 in 10.0 mi WSW 23.0 mph 31.1 mph N/A   Mostly Cloudy
12:36 AM 34.7 °F 22.2 °F 28.4 °F 78% 29.74 in 10.0 mi WSW 25.3 mph 31.1 mph N/A   Mostly Cloudy
12:55 AM 34.7 °F 22.8 °F 27.9 °F 76% 29.73 in 10.0 mi WSW 23.0 mph 35.7 mph N/A   Scattered Clouds
12:59 AM 34.7 °F 22.8 °F 28.0 °F 77% 29.73 in 10.0 mi WSW 23.0 mph 32.2 mph N/A   Scattered Clouds
1:17 AM 34.7 °F 23.4 °F 28.0 °F 77% 29.73 in 10.0 mi WSW 20.7 mph 32.2 mph N/A   Scattered Clouds
1:36 AM 34.7 °F 22.5 °F 28.0 °F 77% 29.73 in 10.0 mi WSW 24.2 mph 32.2 mph N/A   Mostly Cloudy
1:55 AM 34.9 °F 23.0 °F 27.7 °F 75% 29.72 in 10.0 mi WSW 23.0 mph 33.4 mph N/A   Scattered Clouds
1:56 AM 34.9 °F 22.7 °F 27.9 °F 76% 29.72 in 10.0 mi WSW 24.2 mph 32.2 mph N/A   Scattered Clouds
2:15 AM 34.7 °F 22.2 °F 28.0 °F 77% 29.71 in 10.0 mi SW 25.3 mph 32.2 mph N/A   Scattered Clouds
2:37 AM 34.7 °F 23.4 °F 27.9 °F 76% 29.71 in 10.0 mi WSW 20.7 mph 33.4 mph N/A   Mostly Cloudy
2:55 AM 34.2 °F 21.8 °F 28.2 °F 79% 29.71 in 10.0 mi SW 24.2 mph 32.2 mph N/A   Mostly Cloudy
3:15 AM 34.0 °F 22.4 °F 28.0 °F 79% 29.70 in 10.0 mi SW 20.7 mph 27.6 mph N/A   Overcast
3:35 AM 34.3 °F 23.5 °F 28.4 °F 79% 29.69 in 10.0 mi SW 18.4 mph 27.6 mph N/A   Overcast
3:36 AM 34.3 °F 23.2 °F 28.2 °F 78% 29.69 in 10.0 mi SW 19.6 mph 27.6 mph N/A   Overcast
3:59 AM 34.7 °F 22.8 °F 28.4 °F 78% 29.69 in 10.0 mi SW 23.0 mph 27.6 mph N/A   Overcast
4:16 AM 34.5 °F 23.1 °F 28.4 °F 78% 29.68 in 10.0 mi SW 20.7 mph 33.4 mph N/A   Overcast
4:36 AM 34.0 °F 21.3 °F 29.1 °F 82% 29.68 in 10.0 mi SW 25.3 mph 32.2 mph N/A   Overcast
4:55 AM 33.8 °F 22.5 °F 29.8 °F 85% 29.67 in 4.0 mi SW 19.6 mph - N/A Snow Light Snow
5:15 AM 33.4 °F 20.8 °F 30.0 °F 87% 29.66 in 5.0 mi SW 24.2 mph 29.9 mph N/A Snow Light Snow
5:19 AM 33.4 °F 21.7 °F 30.0 °F 87% 29.66 in 7.0 mi SW 20.7 mph 29.9 mph N/A Snow Light Snow
5:55 AM 34.0 °F 21.8 °F 30.2 °F 86% 29.66 in 5.0 mi SW 23.0 mph 26.5 mph N/A Snow Light Snow
6:15 AM 33.6 °F 21.9 °F 31.1 °F 90% 29.66 in 2.0 mi SW 20.7 mph 28.8 mph N/A Snow Light Snow
6:16 AM 33.6 °F 21.9 °F 31.1 °F 90% 29.66 in 2.0 mi SW 20.7 mph 26.5 mph N/A Snow Light Snow
6:35 AM 33.3 °F 21.5 °F 31.5 °F 93% 29.65 in 2.0 mi SW 20.7 mph 25.3 mph N/A Snow Light Snow
6:36 AM 33.3 °F 21.5 °F 31.5 °F 93% 29.65 in 2.0 mi SW 20.7 mph 25.3 mph N/A Snow Light Snow
6:59 AM 34.0 °F 21.5 °F 31.3 °F 90% 29.65 in 3.0 mi WSW 24.2 mph 29.9 mph N/A Snow Light Snow
7:16 AM 34.0 °F 22.4 °F 31.6 °F 91% 29.64 in 2.0 mi WSW 20.7 mph 32.2 mph N/A Snow Light Snow
7:35 AM 33.8 °F 21.9 °F 31.8 °F 92% 29.64 in 5.0 mi SW 21.9 mph 26.5 mph N/A Snow Light Snow
7:36 AM 33.8 °F 22.2 °F 31.8 °F 92% 29.64 in 7.0 mi SW 20.7 mph 26.5 mph N/A Snow Light Snow
7:55 AM 34.0 °F 22.7 °F 31.1 °F 89% 29.64 in 10.0 mi SW 19.6 mph 29.9 mph N/A   Overcast
7:56 AM 34.0 °F 22.1 °F 31.1 °F 89% 29.63 in 10.0 mi SW 21.9 mph 28.8 mph N/A   Overcast
8:19 AM 34.2 °F 22.6 °F 31.5 °F 90% 29.63 in 4.0 mi SW 20.7 mph 27.6 mph N/A Snow Light Snow
8:36 AM 34.7 °F 23.4 °F 31.6 °F 89% 29.63 in 7.0 mi SW 20.7 mph 27.6 mph N/A   Overcast
8:56 AM 34.7 °F 22.8 °F 31.1 °F 87% 29.62 in 10.0 mi SW 23.0 mph 28.8 mph N/A   Mostly Cloudy
9:15 AM 35.2 °F 23.5 °F 30.9 °F 84% 29.60 in 10.0 mi SW 23.0 mph 29.9 mph N/A   Mostly Cloudy
9:35 AM 36.5 °F 24.9 °F 31.1 °F 81% 29.61 in 10.0 mi WSW 24.2 mph 32.2 mph N/A   Mostly Cloudy
9:39 AM 36.5 °F 24.4 °F 31.1 °F 81% 29.61 in 10.0 mi WSW 26.5 mph 32.2 mph N/A   Mostly Cloudy
9:58 AM 36.5 °F 24.7 °F 30.9 °F 80% 29.60 in 10.0 mi WSW 25.3 mph 29.9 mph N/A   Overcast
10:15 AM 36.5 °F 24.0 °F 31.1 °F 81% 29.61 in 10.0 mi WSW 28.8 mph 35.7 mph N/A   Overcast
10:35 AM 36.5 °F 25.4 °F 31.1 °F 81% 29.61 in 10.0 mi WSW 21.9 mph 38.0 mph N/A   Overcast
10:36 AM 36.5 °F 25.4 °F 31.1 °F 81% 29.61 in 10.0 mi WSW 21.9 mph 38.0 mph N/A   Overcast
10:55 AM 36.9 °F 24.9 °F 31.3 °F 80% 29.62 in 10.0 mi WSW 26.5 mph 35.7 mph N/A   Overcast
11:18 AM 36.9 °F 24.7 °F 32.0 °F 83% 29.62 in 7.0 mi WSW 27.6 mph 34.5 mph N/A   Overcast
11:37 AM 36.5 °F 25.7 °F 32.0 °F 84% 29.62 in 5.0 mi WSW 20.7 mph 34.5 mph N/A Snow Light Snow
11:56 AM 35.8 °F 23.9 °F 32.9 °F 89% 29.62 in 2.5 mi WSW 24.2 mph 28.8 mph N/A Snow Light Snow
12:15 PM 36.5 °F 25.2 °F 33.6 °F 89% 29.62 in 7.0 mi WSW 23.0 mph 32.2 mph N/A   Overcast
12:16 PM 36.5 °F 24.9 °F 33.6 °F 89% 29.62 in 7.0 mi WSW 24.2 mph 32.2 mph N/A   Overcast
12:35 PM 36.5 °F 25.2 °F 33.8 °F 90% 29.62 in 10.0 mi WSW 23.0 mph 28.8 mph N/A   Overcast
12:57 PM 36.7 °F 25.7 °F 32.9 °F 86% 29.62 in 10.0 mi WSW 21.9 mph 27.6 mph N/A   Overcast
1:15 PM 37.4 °F 26.6 °F 32.2 °F 81% 29.62 in 10.0 mi WSW 21.9 mph 32.2 mph N/A   Overcast
1:35 PM 38.3 °F 29.0 °F 32.0 °F 78% 29.62 in 10.0 mi West 17.3 mph 24.2 mph N/A   Overcast
1:55 PM 38.3 °F 27.6 °F 31.1 °F 75% 29.62 in 10.0 mi WSW 23.0 mph 33.4 mph N/A   Overcast
2:19 PM 38.3 °F 27.1 °F 30.7 °F 74% 29.62 in 10.0 mi WSW 25.3 mph 33.4 mph N/A   Overcast
2:36 PM 38.3 °F 26.6 °F 30.4 °F 73% 29.63 in 10.0 mi WSW 27.6 mph 35.7 mph N/A   Overcast
2:56 PM 38.3 °F 27.3 °F 30.2 °F 73% 29.64 in 10.0 mi WSW 24.2 mph 36.8 mph N/A   Overcast
3:15 PM 38.3 °F 28.1 °F 30.7 °F 74% 29.64 in 10.0 mi WSW 20.7 mph 29.9 mph N/A   Overcast
3:16 PM 38.3 °F 27.1 °F 30.9 °F 75% 29.64 in 10.0 mi WSW 25.3 mph 31.1 mph N/A   Overcast
3:35 PM 38.3 °F 28.1 °F 30.6 °F 74% 29.64 in 10.0 mi West 20.7 mph 29.9 mph N/A   Overcast
3:40 PM 38.3 °F 28.4 °F 30.7 °F 74% 29.64 in 10.0 mi West 19.6 mph 32.2 mph N/A   Overcast
4:16 PM 38.3 °F 26.0 °F 30.0 °F 72% 29.65 in 10.0 mi West 31.1 mph 40.3 mph N/A   Overcast
4:35 PM 38.3 °F 27.3 °F 30.6 °F 74% 29.65 in 10.0 mi West 24.2 mph 35.7 mph N/A   Overcast
4:36 PM 38.3 °F 27.1 °F 30.6 °F 74% 29.65 in 10.0 mi West 25.3 mph 33.4 mph N/A   Overcast
4:55 PM 38.1 °F 26.6 °F 30.4 °F 74% 29.66 in 10.0 mi West 26.5 mph 34.5 mph N/A   Overcast
4:56 PM 38.1 °F 26.6 °F 30.4 °F 74% 29.66 in 10.0 mi West 26.5 mph 34.5 mph N/A   Overcast
5:18 PM 38.3 °F 27.3 °F 29.7 °F 71% 29.66 in 10.0 mi West 24.2 mph 38.0 mph N/A   Overcast
5:36 PM 37.9 °F 26.8 °F 30.0 °F 73% 29.67 in 10.0 mi West 24.2 mph 34.5 mph N/A   Overcast
5:55 PM 37.6 °F 25.6 °F 30.0 °F 74% 29.68 in 10.0 mi West 27.6 mph 38.0 mph N/A   Overcast
5:56 PM 37.6 °F 25.9 °F 29.8 °F 74% 29.68 in 10.0 mi West 26.5 mph 33.4 mph N/A   Overcast
6:15 PM 37.2 °F 25.6 °F 29.8 °F 75% 29.69 in 10.0 mi West 25.3 mph 31.1 mph N/A   Overcast
6:16 PM 37.2 °F 25.6 °F 29.8 °F 75% 29.69 in 10.0 mi West 25.3 mph 31.1 mph N/A   Overcast
6:35 PM 37.2 °F 25.9 °F 29.7 °F 74% 29.69 in 10.0 mi West 24.2 mph 33.4 mph N/A   Overcast
6:39 PM 37.2 °F 25.9 °F 29.8 °F 75% 29.69 in 10.0 mi West 24.2 mph 33.4 mph N/A   Overcast
6:58 PM 37.0 °F 27.0 °F 30.2 °F 76% 29.70 in 10.0 mi West 18.4 mph 32.2 mph N/A   Overcast
7:15 PM 36.9 °F 25.6 °F 30.0 °F 76% 29.70 in 10.0 mi West 23.0 mph 28.8 mph N/A   Overcast
7:35 PM 36.7 °F 26.9 °F 30.2 °F 77% 29.71 in 10.0 mi West 17.3 mph 24.2 mph N/A   Overcast
7:36 PM 36.7 °F 26.6 °F 30.2 °F 77% 29.71 in 10.0 mi West 18.4 mph 24.2 mph N/A   Overcast
7:55 PM 36.7 °F 26.9 °F 30.2 °F 77% 29.72 in 10.0 mi West 17.3 mph - N/A   Overcast
8:18 PM 36.7 °F 25.7 °F 30.0 °F 77% 29.72 in 10.0 mi West 21.9 mph 27.6 mph N/A   Overcast
8:37 PM 36.5 °F 27.0 °F 30.2 °F 78% 29.72 in 10.0 mi West 16.1 mph 25.3 mph N/A   Overcast
8:56 PM 36.5 °F 26.7 °F 30.4 °F 78% 29.72 in 10.0 mi West 17.3 mph 25.3 mph N/A   Overcast
9:15 PM 36.5 °F 26.7 °F 30.6 °F 79% 29.72 in 10.0 mi West 17.3 mph 24.2 mph N/A   Overcast
9:16 PM 36.5 °F 26.7 °F 30.6 °F 79% 29.72 in 10.0 mi West 17.3 mph 24.2 mph N/A   Overcast
9:35 PM 36.5 °F 27.4 °F 30.6 °F 79% 29.72 in 10.0 mi West 15.0 mph 21.9 mph N/A   Overcast
9:40 PM 36.5 °F 27.8 °F 30.7 °F 80% 29.72 in 10.0 mi West 13.8 mph 21.9 mph N/A   Overcast
9:57 PM 36.5 °F 26.7 °F 30.4 °F 78% 29.72 in 10.0 mi West 17.3 mph 21.9 mph N/A   Overcast
10:16 PM 36.5 °F 26.7 °F 30.6 °F 79% 29.72 in 10.0 mi West 17.3 mph 21.9 mph N/A   Overcast
10:35 PM 36.5 °F 28.2 °F 30.7 °F 80% 29.72 in 10.0 mi West 12.7 mph - N/A   Overcast
10:36 PM 36.5 °F 28.7 °F 30.7 °F 80% 29.72 in 10.0 mi West 11.5 mph - N/A   Overcast
10:55 PM 36.5 °F 27.4 °F 30.9 °F 80% 29.72 in 10.0 mi West 15.0 mph 18.4 mph N/A   Overcast
10:56 PM 36.5 °F 27.8 °F 30.9 °F 80% 29.72 in 10.0 mi West 13.8 mph 18.4 mph N/A   Overcast
11:19 PM 36.5 °F 27.4 °F 30.7 °F 80% 29.72 in 10.0 mi West 15.0 mph 21.9 mph N/A   Overcast
11:36 PM 36.5 °F 27.0 °F 31.1 °F 81% 29.72 in 10.0 mi West 16.1 mph 23.0 mph N/A   Overcast
11:56 PM 35.6 °F 27.1 °F 32.0 °F 87% 29.72 in 5.0 mi West 12.7 mph - N/A   Overcast